Weather History for KCDJ - January, 2013

Change the Weather History Date:

Wednesday, January 2, 2013

  Actual Average (KIRK) Record (KIRK)
Temperature  
Mean Temperature 21 °F 26 °F  
Max Temperature 35 °F 35 °F - ()
Min Temperature 7 °F 18 °F - ()
Degree Days  
Heating Degree Days 44 39  
Month to date heating degree days 78  
Since 1 July heating degree days 2421  
Cooling Degree Days 0 0  
Month to date cooling degree days 0  
Year to date cooling degree days 0  
Moisture  
Dew Point 15 °F    
Average Humidity 75    
Maximum Humidity 87    
Minimum Humidity 59    
Precipitation  
Precipitation 0.00 in 0.03 in - ()
Month to date precipitation 0.07  
Year to date precipitation 0.07  
Sea Level Pressure  
Sea Level Pressure 30.25 in    
Wind  
Wind Speed 4 mph (SW)    
Max Wind Speed 10 mph    
Max Gust Speed -    
T = Trace of Precipitation, MM = Missing Value Source: NWS Daily Summary

Daily Weather History Graph

Daily Weather History Graph

Search for Another Location

Airport or City:

Trip Planner

Search our weather history database for the weather conditions in past years. The results will help you decide how hot, cold, wet, or windy it might be!

Date:

Astronomy

Jan. 02, 2013 Rise Set
Actual Time 7:35 AM CST 5:01 PM CST
Civil Twilight 7:05 AM CST 5:31 PM CST
Nautical Twilight 6:31 AM CST 6:05 PM CST
Astronomical Twilight 5:58 AM CST 6:38 PM CST
Moon 10:33 PM CST (1/2) 10:18 AM CST (1/2)
Length of Visible Light 10h 26m
Length of Day
9h 25m
Waning Gibbous, 75% of the Moon is Illuminated
Jan 2
Waning Gibbous
Jan 4
Last Quarter
Jan 11
New
Jan 18
First Quarter
Jan 26
Full

Hourly Weather History & Observations

Time (CST) Temp. Windchill Dew Point Humidity Pressure Visibility Wind Dir Wind Speed Gust Speed Precip Events Conditions
12:52 AM 7.0 °F - 3.9 °F 87% 30.32 in - Calm Calm - N/A   Unknown
1:52 AM 9.0 °F - 5.0 °F 84% 30.30 in - Calm Calm - N/A   Unknown
2:52 AM 9.0 °F 2.4 °F 3.9 °F 80% 30.29 in - SSE 3.5 mph - N/A   Unknown
3:52 AM 9.0 °F 0.6 °F 5.0 °F 84% 30.28 in - South 4.6 mph - N/A   Unknown
4:52 AM 10.9 °F 0.2 °F 5.0 °F 77% 30.26 in - South 6.9 mph - N/A   Unknown
5:52 AM 10.0 °F 1.8 °F 6.1 °F 84% 30.27 in - South 4.6 mph - N/A   Unknown
6:52 AM 10.9 °F 0.2 °F 7.0 °F 84% 30.26 in - South 6.9 mph - N/A   Unknown
7:52 AM 12.0 °F 2.7 °F 8.1 °F 84% 30.26 in - South 5.8 mph - N/A   Unknown
8:52 AM 15.1 °F 5.2 °F 10.9 °F 84% 30.24 in - SSW 6.9 mph - N/A   Unknown
9:52 AM 19.9 °F 11.1 °F 15.1 °F 81% 30.25 in - South 6.9 mph - N/A   Unknown
10:52 AM 24.1 °F 15.2 °F 17.1 °F 75% 30.24 in - South 8.1 mph - N/A   Unknown
11:52 AM 28.0 °F 19.3 °F 19.0 °F 69% 30.22 in - SSW 9.2 mph - N/A   Unknown
12:52 PM 33.1 °F 26.9 °F 21.9 °F 64% 30.19 in - South 6.9 mph - N/A   Unknown
1:52 PM 34.0 °F 26.0 °F 21.9 °F 61% 30.16 in - SW 10.4 mph - N/A   Unknown
2:52 PM 35.1 °F 28.6 °F 21.9 °F 59% 30.16 in - SW 8.1 mph - N/A   Unknown
3:52 PM 34.0 °F 27.2 °F 21.0 °F 59% 30.18 in - West 8.1 mph - N/A   Unknown
4:52 PM 32.0 °F 26.4 °F 21.0 °F 64% 30.19 in - SW 5.8 mph - N/A   Unknown
5:52 PM 30.0 °F 26.5 °F 21.0 °F 69% 30.22 in - West 3.5 mph - N/A   Unknown
6:52 PM 30.0 °F 25.2 °F 21.0 °F 69% 30.24 in - West 4.6 mph - N/A   Unknown
7:52 PM 28.9 °F 25.2 °F 21.0 °F 72% 30.26 in - West 3.5 mph - N/A   Unknown
8:52 PM 27.0 °F 23.0 °F 21.0 °F 78% 30.27 in - WSW 3.5 mph - N/A   Unknown
9:52 PM 27.0 °F - 19.9 °F 75% 30.28 in - Calm Calm - N/A   Unknown
10:52 PM 26.1 °F 20.5 °F 19.0 °F 75% 30.28 in - WSW 4.6 mph - N/A   Unknown
11:52 PM 25.0 °F - 19.9 °F 81% 30.28 in - Calm Calm - N/A   Unknown